Regional Weather Roundup
Issued by NWS

Home | Current Version | Previous Version | Text Only | Print | Product List | Glossary On
Versions: 1 2 3 4 5 6 7 8 9 10 11 12 13 14 15 16 17 18 19 20 21 22 23 24 25 26 27 28 29 30 31 32 33 34 35 36 37 38 39 40 41 42 43 44 45 46 47 48 49 50
000
ASUS43 KLOT 200610
RWRIL

ILLINOIS REGIONAL WEATHER ROUNDUP
NATIONAL WEATHER SERVICE CHICAGO/ROMEOVILLE IL
100 AM CDT SAT SEP 20 2014

NOTE: "FAIR" INDICATES FEW OR NO CLOUDS BELOW 12,000 FEET WITH NO
SIGNIFICANT WEATHER AND/OR OBSTRUCTIONS TO VISIBILITY.

* THESE STATIONS ARE NOT UNDER NWS QUALITY CONTROL. THEY ALSO MAY NOT
  REPORT WEATHER SUCH AS PRECIPITATION OR FOG.

ILZ001-002-007-009-015-016-024-200700-
NORTHWEST ILLINOIS

CITY           SKY/WX    TMP DP  RH WIND       PRES   REMARKS
MOLINE         CLEAR     66  56  70 S8        29.90S
6HR MIN TEMP:  66; 6HR MAX TEMP:  71;

STERLING*      CLEAR     63  54  72 CALM      29.92R
SAVANNA*       CLEAR     65  56  71 S7        29.90R
$$

ILZ003-004-008-010-011-017-018-200700-
NORTH CENTRAL ILLINOIS

CITY           SKY/WX    TMP DP  RH WIND       PRES   REMARKS
ROCKFORD       CLEAR     63  53  70 S9        29.93F
6HR MIN TEMP:  61; 6HR MAX TEMP:  68;

FREEPORT*      CLEAR     63  57  81 SW13      29.92R
ROCHELLE*      CLEAR     60  53  77 S8        29.92F
DE KALB*       CLEAR     57  50  78 S10       29.94S
PERU*          CLEAR     60  53  77 S9        29.93F
$$

ILZ005-006-012>014-019>023-200700-
NORTHEAST ILLINOIS

CITY           SKY/WX    TMP DP  RH WIND       PRES   REMARKS
CHICAGO-OHARE  CLEAR     65  49  56 SW13      29.92F
6HR MIN TEMP:  65; 6HR MAX TEMP:  72;

CHICAGO-MIDWAY CLEAR     66  51  58 SW13      29.93F
6HR MIN TEMP:  66; 6HR MAX TEMP:  73;

AURORA         CLEAR     59  49  69 S6        29.94S
6HR MIN TEMP:  59; 6HR MAX TEMP:  67;

LANSING*       CLEAR     59  51  74 S9        29.95F
JOLIET*        CLEAR     61  50  66 S8        29.94F
WAUKEGAN       CLEAR     64  48  56 S16       29.89F
6HR MIN TEMP:  63; 6HR MAX TEMP:  67;

DUPAGE AIRPORT CLEAR     61  50  67 S12       29.92F
6HR MIN TEMP:  60; 6HR MAX TEMP:  65;

KANKAKEE*      CLEAR     58  52  80 S9        29.96F
WHEELING       CLEAR     66  49  54 S14       29.93F
6HR MIN TEMP:  66; 6HR MAX TEMP:  71;

MORRIS*        CLEAR     57  52  83 S6        29.93F
ROMEOVILLE*    CLEAR     60  51  71 S8        29.94F
NORTHERLY ISL    N/A     66  49  54 SW12        N/A
$$

LMZ740>746-200700-
SOUTHERN LAKE MICHIGAN

STATION/POSITION SKY/WX   TEMP    WIND        PRES    VSBY  WAVE
                          AIR SEA DIR/SP/G                  HT/PER
                          (F)     (DEG/KT/KT) (MB)    (MI)  (FT/S)
SOUTHERN BUOY              66 64  190/ 21/ 25 1012.2F         4/ 5
WAUKEGAN HARBOR            67     210/ 14/ 19   N/A
HARRISON CRIB              66     200/ 18/ 23   N/A
BURNHAM HARBOR             66     210/ 10/ 17   N/A
CALUMET HARBOR             64     190/  8/ 15 1012.3F
MICHIGAN CITY              62     150/ 13/ 17   N/A
MICHIGAN CITY 6N           64 65  180/ 16/ 19   N/A           1/ 3
ST. JOSEPH                 64 65  170/ 16/ 21   N/A           2/ 3
$$

ILZ025>027-034>036-040-047-049-050-058-095>099-200700-
WEST-CENTRAL ILLINOIS

CITY           SKY/WX    TMP DP  RH WIND       PRES   REMARKS
QUINCY         CLEAR     64  58  80 S8        29.94F
GALESBURG*     CLEAR     61  57  89 S8        29.93S
MACOMB*        CLEAR     62  57  84 S9        29.95F
JACKSONVILLE*  CLEAR     66  58  76 S9        29.97F
PITTSFIELD*    CLEAR     63  58  83 S6        29.97F
$$

ILZ028>032-037-038-041>044-048-051>054-059>061-200700-
CENTRAL ILLINOIS

CITY           SKY/WX    TMP DP  RH WIND       PRES   REMARKS
PONTIAC        CLEAR     59  54  82 S7        29.95F
DECATUR        CLEAR     62  54  74 S10       30.00F
PEORIA         CLEAR     64  55  72 S12       29.94F
6HR MIN TEMP:  64; 6HR MAX TEMP:  70;

LACON*         CLEAR     63  54  71 SW7       29.92F
LINCOLN*       CLEAR     60  55  82 S7        29.95F
SPRINGFIELD    CLEAR     64  55  72 S7        29.97F
6HR MIN TEMP:  62; 6HR MAX TEMP:  71;

TAYLORVILLE    CLEAR     55  54  94 S6        30.00F
$$

ILZ033-039-045-046-055>057-062-063-200700-
EAST-CENTRAL ILLINOIS

CITY           SKY/WX    TMP DP  RH WIND       PRES   REMARKS
CHAMPAIGN      CLEAR     59  53  80 S9        30.00F
DANVILLE*      CLEAR     56  51  84 S3        29.98F
RANTOUL*       CLEAR     57  51  81 S6        30.00F
MATTOON        CLEAR     59  54  83 S6        30.01F
PARIS*         CLEAR     52  51  98 S5        30.03F
$$

ILZ079-100>102-200700-
SOUTHWEST ILLINOIS

CITY           SKY/WX    TMP DP  RH WIND       PRES   REMARKS
ALTON          CLEAR     58  56  95 CALM      30.01S
BELLEVILLE     CLEAR     59  59 100 CALM      30.00F FOG
CAHOKIA*       CLEAR     59  57  93 CALM      30.01S
SPARTA*        CLEAR     59  57  94 SE3       30.03S
$$

ILZ064>066-069>071-074>076-080>082-084>086-088>090-092>094-200700-
SOUTH-CENTRAL ILLINOIS

CITY           SKY/WX    TMP DP  RH WIND       PRES   REMARKS
CARBONDALE     CLEAR     56  55  97 CALM      30.03S FOG
6HR MIN TEMP:  55; 6HR MAX TEMP:  71;

CAIRO*           N/A     60  58  92 CALM      30.03S FOG
EFFINGHAM*     CLEAR     56  53  86 SE3       30.02F
MARION           N/A     59  59 100 CALM      30.04S FOG
MT. VERNON     CLEAR     54  52  94 CALM      30.03F
CENTRALIA*     CLEAR     56  52  88 SE3       30.02F
SALEM*         CLEAR     58  57  96 CALM      30.03S FOG
METROPOLIS*    CLEAR     58  58 100 CALM      30.03F FOG
$$

ILZ067-068-072-073-078-083-087-091-200700-
SOUTHEAST ILLINOIS

CITY           SKY/WX    TMP DP  RH WIND       PRES   REMARKS
LAWRENCEVILLE  CLEAR     54  52  93 CALM      30.04F FOG
FLORA*         CLEAR     54  53  97 CALM      30.03F FOG
FAIRFIELD*     CLEAR    N/A N/A N/A CALM      30.02F
HARRISBURG*    CLEAR     58  58 100 CALM      30.05S FOG
ROBINSON*      CLEAR     54  53  99 CALM      30.04F FOG
CARMI*         CLEAR     57  56  99 CALM      30.03F
$$

ABBREVIATIONS USED IN REMARKS
   TC - TEMPERATURE IN CELSIUS
  WCI - WIND CHILL INDEX
   HX - HEAT INDEX
  VSB - VISIBILITY
$$



USA.gov is the U.S. government's official web portal to all federal, state and local government web resources and services.